[[{"header":{"parameterUnit":"m.s-1","parameterCategory":1,"la1":30.2991,"la2":30.254,"lo1":-89.0895,"lo2":-89.0444,"dy":0.0017,"dx":0.0017,"nx":28,"ny":28,"refTime":"2025-05-16T09:00:00:Z","depth":0,"parameterNumber":2,"parameterNumberName":"U-component_of_WINDS"},"data":[0,0,0,0,0,0,0,0,0,0,0,0,0,0,0,0,0,0,0,0,0,0,0,0,0,0,0,0,0,0,0,0,0,0,0,0,0,0,0,0,0,0,0,0,0,0,0,0,0,0,0,0,0,0,0,0,0,0,1.3449,1.345,0,1.3563,1.3564,1.3566,1.3585,1.3584,1.3583,1.3582,1.3703,1.3707,1.3711,0,0,0,0,0,0,0,0,0,0,0,0,0,1.3251,1.3254,1.3449,1.345,1.3452,1.3563,1.3564,1.3566,1.3585,1.3584,1.3583,1.3582,1.3701,1.3706,1.3711,0,0,0,0,0,0,0,0,0,0,0,0,0,1.3348,1.3255,1.3449,1.3475,1.3478,1.3563,1.3565,1.3566,1.3586,1.3584,1.3583,1.3581,1.37,1.3706,1.3712,1.3779,0,0,1.3731,1.3733,0,0,0,0,0,0,0,0,1.3342,1.3355,1.3469,1.3473,1.3477,1.3558,1.3539,1.3638,1.3586,1.3545,1.3582,1.3581,1.3656,1.3666,1.369,1.3785,1.379,1.3731,1.3735,1.3738,1.3739,0,0,0,0,0,0,0,1.3336,1.335,1.3494,1.3471,1.3476,1.3482,1.3494,1.3558,1.3607,1.3548,1.355,1.3563,1.3658,1.3684,1.3693,1.3792,1.3731,1.3736,1.374,1.3743,1.3948,1.395,0,0,0,0,0,0,1.3324,1.3345,1.3491,1.3498,1.3405,1.3486,1.35,1.3534,1.3607,1.3616,1.3564,1.3564,1.3675,1.3686,1.3698,1.3782,1.3737,1.3743,1.3747,1.3946,1.3948,1.395,0,0,0,0,0,0,1.3319,1.3337,1.3486,1.3422,1.3441,1.3491,1.3529,1.3537,1.3563,1.3619,1.3628,1.3582,1.3674,1.3689,1.3759,1.3787,1.3746,1.3752,1.3944,1.3947,1.3949,1.3951,0,0,0,0,0,0,1.3314,1.3335,1.336,1.3422,1.3444,1.3544,1.3531,1.354,1.3574,1.3574,1.3638,1.3647,1.3674,1.3749,1.3765,1.3794,1.3756,1.3942,1.3946,1.3949,1.3949,1.3953,1.3957,0,0,0,0,0,1.3307,1.3357,1.3361,1.3379,1.3477,1.3546,1.3559,1.3587,1.3576,1.3602,1.3638,1.3645,1.3781,1.3756,1.3774,1.3806,1.394,1.3945,1.3948,1.3947,1.3952,1.3957,0,0,0,0,0,0,1.3298,1.3365,1.3371,1.3443,1.3488,1.3549,1.3583,1.3592,1.3643,1.3641,1.3676,1.369,1.3758,1.3789,1.376,1.3875,1.386,1.3868,1.3853,1.3858,1.3863,1.3854,1.3762,0,0,0,0,0,1.3304,1.3353,1.341,1.3468,1.349,1.3532,1.3563,1.3582,1.363,1.365,1.3691,1.3739,1.3792,1.3827,1.3879,1.3953,1.3968,1.3983,1.3988,1.3991,1.3997,1.4039,1.4047,1.3963,1.3963,1.3963,0,0,1.3318,1.3361,1.339,1.3467,1.3504,1.3555,1.3549,1.3603,1.3641,1.3659,1.3727,1.3758,1.3814,1.3886,1.392,1.3914,1.4024,1.3996,1.3998,1.4003,1.4044,1.4052,1.4059,1.3966,1.3966,1.3965,0,0,1.337,1.3406,1.3459,1.3496,1.3552,1.358,1.3593,1.3652,1.3673,1.3742,1.3756,1.3803,1.3894,1.3934,1.3966,1.4032,1.4041,1.4048,1.4071,1.4111,1.4118,1.4124,1.4148,1.4157,1.4054,1.4054,1.4054,0,1.338,1.3457,1.3485,1.3539,1.3572,1.3589,1.3643,1.3678,1.3749,1.3773,1.3764,1.3879,1.3918,1.4,1.4016,1.4041,1.4057,1.4041,1.4114,1.4121,1.4127,1.4151,1.416,1.4055,1.4055,1.4055,1.4055,0,1.3467,1.352,1.3556,1.3623,1.366,1.3714,1.3751,1.3786,1.3801,1.383,1.39,1.3947,1.401,1.403,1.4046,1.4115,1.4109,1.4107,1.4093,1.4135,1.4158,1.4167,1.4056,1.4055,1.4055,1.4055,0,0,1.3517,1.3598,1.3611,1.3642,1.3705,1.3747,1.3802,1.3862,1.3891,1.394,1.3987,1.4064,1.4062,1.4099,1.4119,1.4154,1.4204,1.4148,1.415,1.4158,1.4284,1.4285,1.4295,1.421,1.4212,1.4213,1.4279,0,1.3576,1.3673,1.37,1.3783,1.3833,1.3849,1.3897,1.3941,1.397,1.4017,1.4049,1.4103,1.4097,1.4119,1.4155,1.419,1.423,1.4186,1.4256,1.4258,1.4242,1.4307,1.4309,1.4369,1.4288,1.429,1.4291,0,1.3659,1.3708,1.3795,1.3852,1.3874,1.3916,1.3973,1.4018,1.4069,1.4087,1.4127,1.4144,1.4203,1.4184,1.4266,1.4236,1.4266,1.4288,1.4291,1.4299,1.4277,1.4318,1.4389,1.4398,1.4305,1.4304,1.4303,0,1.3687,1.3775,1.3838,1.3864,1.3932,1.3962,1.3992,1.4041,1.4076,1.4126,1.4149,1.4205,1.4237,1.4281,1.4313,1.4296,1.4392,1.4376,1.441,1.4409,1.443,1.4429,1.4508,1.4448,1.4448,1.4448,1.4448,0,1.3751,1.3804,1.3852,1.3891,1.3951,1.3982,1.4041,1.4072,1.4116,1.4162,1.418,1.4223,1.4262,1.4311,1.4337,1.4401,1.4415,1.4432,1.4438,1.4431,1.4429,1.4452,1.4449,1.445,1.445,1.4449,1.4449,0,1.3793,1.3827,1.3898,1.3956,1.3972,1.4014,1.4065,1.4104,1.4133,1.4191,1.4207,1.4253,1.4311,1.4347,1.4421,1.4438,1.4509,1.4514,1.4492,1.4495,1.4527,1.4523,1.4624,1.4639,1.4568,1.4569,1.457,0,1.3832,1.3873,1.3936,1.3967,1.3997,1.4048,1.4083,1.4116,1.4152,1.4213,1.4245,1.4304,1.4353,1.4446,1.4486,1.4543,1.455,1.4581,1.4558,1.455,1.4551,1.4548,1.4553,1.4585,1.4585,1.4586,1.4586,0,1.3898,1.3913,1.3962,1.4017,1.4058,1.4104,1.4149,1.4174,1.4214,1.4254,1.4313,1.4351,1.4426,1.4485,1.4546,1.4578,1.4589,1.4593,1.4604,1.4597,1.4583,1.4592,1.4503,1.4591,1.459,1.459,1.459,1.4589,1.394,1.3977,1.4027,1.4082,1.4119,1.4161,1.4201,1.4234,1.4284,1.4347,1.4364,1.4426,1.4477,1.4559,1.4592,1.4642,1.4637,1.4653,1.4657,1.4661,1.4662,1.4574,1.4653,1.4653,1.4653,1.4653,1.4653,0,1.4007,1.404,1.409,1.4152,1.4195,1.4201,1.4252,1.4287,1.4342,1.4388,1.4435,1.4504,1.4561,1.4606,1.4665,1.4696,1.4703,1.471,1.4709,1.4716,1.4662,1.4647,1.4704,1.4704,1.4704,1.4704,1.4704,1.4704,1.4047,1.4111,1.4131,1.4214,1.4247,1.4308,1.4336,1.4375,1.4412,1.4487,1.4534,1.4563,1.4609,1.4671,1.4724,1.4736,1.4757,1.4764,1.4777,1.4725,1.472,1.4715,1.4701,1.4768,1.4768,1.4827,1.4828,1.4828]},{"header":{"parameterUnit":"m.s-1","parameterCategory":1,"la1":30.2991,"la2":30.254,"lo1":-89.0895,"lo2":-89.0444,"dy":0.0017,"dx":0.0017,"nx":28,"ny":28,"refTime":"2025-05-16T09:00:00:Z","depth":0,"parameterNumber":3,"parameterNumberName":"V-component_of_WINDS"},"data":[0,0,0,0,0,0,0,0,0,0,0,0,0,0,0,0,0,0,0,0,0,0,0,0,0,0,0,0,0,0,0,0,0,0,0,0,0,0,0,0,0,0,0,0,0,0,0,0,0,0,0,0,0,0,0,0,0,0,3.5351,3.5351,0,3.5361,3.5361,3.5361,3.5372,3.5373,3.5373,3.5373,3.5382,3.5382,3.5382,0,0,0,0,0,0,0,0,0,0,0,0,0,3.5338,3.5339,3.535,3.5351,3.5351,3.5361,3.5361,3.5361,3.5372,3.5373,3.5373,3.5373,3.5382,3.5382,3.5382,0,0,0,0,0,0,0,0,0,0,0,0,0,3.5346,3.5339,3.535,3.5358,3.5358,3.5361,3.5361,3.5361,3.5372,3.5373,3.5373,3.5373,3.5382,3.5382,3.5382,3.5378,0,0,3.5382,3.5382,0,0,0,0,0,0,0,0,3.5345,3.5346,3.5356,3.5357,3.5358,3.5366,3.536,3.5367,3.5372,3.5367,3.5373,3.5373,3.5376,3.5377,3.5378,3.5378,3.5379,3.5382,3.5382,3.5382,3.5382,0,0,0,0,0,0,0,3.5345,3.5346,3.5355,3.5357,3.5357,3.536,3.5361,3.5362,3.537,3.5367,3.5368,3.537,3.5377,3.5378,3.5378,3.5379,3.5382,3.5382,3.5382,3.5383,3.5377,3.5376,0,0,0,0,0,0,3.5343,3.5345,3.5354,3.5355,3.5352,3.536,3.5361,3.5363,3.537,3.5371,3.5369,3.537,3.5378,3.5378,3.5379,3.5375,3.5382,3.5383,3.5383,3.5377,3.5377,3.5376,0,0,0,0,0,0,3.5343,3.5344,3.5354,3.535,3.5352,3.536,3.5362,3.5363,3.5364,3.5371,3.5373,3.5369,3.5378,3.5379,3.5378,3.5375,3.5383,3.5383,3.5377,3.5377,3.5376,3.5366,0,0,0,0,0,0,3.5343,3.5344,3.5343,3.535,3.5352,3.5354,3.5361,3.5363,3.5365,3.5366,3.5372,3.5373,3.5378,3.5378,3.5378,3.5375,3.5383,3.5377,3.5377,3.5377,3.5367,3.5366,3.5365,0,0,0,0,0,3.5342,3.5339,3.5343,3.5344,3.5351,3.5353,3.5354,3.5361,3.5365,3.5363,3.5368,3.5373,3.5376,3.5378,3.5378,3.5375,3.5378,3.5377,3.5377,3.5368,3.5366,3.5365,0,0,0,0,0,0,3.533,3.534,3.5344,3.5343,3.5348,3.5355,3.5354,3.5359,3.5361,3.5362,3.537,3.5371,3.537,3.5373,3.5375,3.5372,3.5377,3.5377,3.537,3.5369,3.5368,3.5367,3.5383,0,0,0,0,0,3.5327,3.5329,3.5338,3.5336,3.5338,3.5346,3.5347,3.5352,3.5356,3.5358,3.5362,3.5366,3.5367,3.5368,3.537,3.5368,3.5369,3.5366,3.5365,3.5364,3.5363,3.5362,3.5361,3.5375,3.5375,3.5375,0,0,3.5321,3.5327,3.5328,3.5334,3.5337,3.5339,3.5347,3.5348,3.5349,3.5358,3.5358,3.5361,3.5366,3.5364,3.5364,3.5367,3.536,3.5363,3.5362,3.5362,3.5362,3.536,3.5359,3.5374,3.5374,3.5374,0,0,3.5311,3.5316,3.5315,3.5319,3.5326,3.5331,3.5331,3.5338,3.5341,3.5341,3.5348,3.5349,3.5352,3.5355,3.5357,3.5349,3.5354,3.5349,3.5343,3.5342,3.5341,3.534,3.5337,3.5336,3.5349,3.5349,3.5349,0,3.5303,3.5306,3.5314,3.5315,3.5318,3.5327,3.5326,3.5329,3.5335,3.5337,3.534,3.5344,3.5347,3.5347,3.5345,3.5347,3.5346,3.5349,3.5341,3.534,3.5339,3.5337,3.5336,3.5348,3.5348,3.5348,3.5349,0,3.5296,3.5298,3.5296,3.5303,3.5305,3.5305,3.5313,3.5315,3.532,3.5324,3.5325,3.533,3.5333,3.5333,3.5338,3.5334,3.5335,3.5339,3.5345,3.5337,3.5335,3.5334,3.5348,3.5348,3.5348,3.5348,0,0,3.5277,3.5289,3.5289,3.5292,3.53,3.5302,3.5302,3.5306,3.5307,3.5311,3.5312,3.5314,3.5319,3.5321,3.5326,3.5325,3.5319,3.5329,3.5329,3.5327,3.5315,3.5312,3.531,3.5322,3.5322,3.5322,3.5314,0,3.5268,3.5271,3.5279,3.5278,3.5281,3.529,3.529,3.5295,3.5299,3.5301,3.5306,3.5308,3.5314,3.5315,3.5315,3.5319,3.5316,3.532,3.5322,3.5322,3.5321,3.5309,3.5306,3.5298,3.5314,3.5313,3.5313,0,3.5258,3.5263,3.5263,3.5272,3.5273,3.5274,3.5278,3.528,3.5286,3.5289,3.5292,3.5298,3.5299,3.5304,3.5305,3.5307,3.5309,3.5311,3.5311,3.5311,3.5317,3.5309,3.5296,3.5295,3.5312,3.5312,3.5312,0,3.5245,3.5251,3.5253,3.5255,3.5265,3.5265,3.5269,3.5275,3.5278,3.5281,3.5283,3.5287,3.5288,3.5291,3.5297,3.5301,3.5298,3.5303,3.53,3.53,3.5299,3.5299,3.5286,3.53,3.53,3.53,3.53,0,3.5234,3.5234,3.5247,3.5248,3.5248,3.5257,3.5256,3.5261,3.5266,3.5268,3.5276,3.5277,3.5285,3.5287,3.5292,3.5292,3.5293,3.5296,3.5297,3.5295,3.5295,3.5296,3.5296,3.53,3.53,3.53,3.53,0,3.5219,3.5228,3.523,3.524,3.5242,3.5242,3.525,3.5251,3.5256,3.5258,3.5259,3.5267,3.527,3.5277,3.5281,3.5285,3.5283,3.5286,3.5282,3.5283,3.5279,3.5279,3.5267,3.5265,3.528,3.528,3.528,0,3.5212,3.5212,3.5222,3.5225,3.5229,3.5232,3.5234,3.5243,3.5246,3.5253,3.5253,3.5256,3.526,3.5263,3.5269,3.5273,3.5275,3.5271,3.5276,3.5274,3.5275,3.5275,3.5275,3.5269,3.5269,3.5269,3.5269,0,3.5198,3.5202,3.5206,3.5212,3.5215,3.522,3.5225,3.5226,3.5236,3.5238,3.5242,3.5245,3.525,3.5253,3.5258,3.5261,3.5267,3.5267,3.5267,3.5265,3.5262,3.5264,3.5279,3.5268,3.5268,3.5268,3.5268,3.5268,3.5186,3.5187,3.5195,3.5199,3.5204,3.5209,3.5211,3.5217,3.5221,3.5226,3.5231,3.5234,3.524,3.5247,3.525,3.5252,3.5255,3.5254,3.5254,3.5253,3.5253,3.5262,3.5253,3.5253,3.5253,3.5253,3.5253,0,3.5173,3.5178,3.5183,3.519,3.5194,3.52,3.5206,3.5208,3.5211,3.5216,3.522,3.5224,3.5228,3.5235,3.5239,3.5239,3.5242,3.524,3.524,3.5241,3.525,3.525,3.5238,3.5238,3.5238,3.5238,3.5238,3.5238,3.5166,3.5168,3.5174,3.5178,3.5184,3.5188,3.5191,3.5195,3.52,3.5205,3.5208,3.5213,3.5219,3.5224,3.5227,3.5229,3.523,3.5227,3.523,3.5238,3.524,3.5241,3.5241,3.5228,3.5228,3.5221,3.5221,3.522]}]]